This is the latest recevied weather packets stored in our database for station/object SV4JYD-14. If no packets are shown the sender has not sent any weather packets the latest 10 day(s).
| Time | Temp. | Humidity | Pressure | Rain* | Wind** | Luminosity | Snow |
|---|---|---|---|---|---|---|---|
| 1777899645 | 17.22° C | 36% | 1017 hPa | 0 mm | - | - | - |
| 1777898744 | 17.22° C | 37% | 1017 hPa | 0 mm | - | - | - |
| 1777897844 | 17.78° C | 38% | 1017 hPa | 0 mm | - | - | - |
| 1777896944 | 17.78° C | 36% | 1017 hPa | 0 mm | - | - | - |
| 1777896044 | 17.78° C | 36% | 1017 hPa | 0 mm | - | - | - |
| 1777895144 | 17.78° C | 37% | 1017 hPa | 0 mm | - | - | - |
| 1777894243 | 17.22° C | 38% | 1017 hPa | 0 mm | - | - | - |
| 1777893343 | 17.22° C | 36% | 1018 hPa | 0 mm | - | - | - |
| 1777892443 | 16.67° C | 38% | 1017 hPa | 0 mm | - | - | - |
| 1777891542 | 16.67° C | 38% | 1017 hPa | 0 mm | - | - | - |
| 1777890642 | 16.11° C | 40% | 1017 hPa | 0 mm | - | - | - |
| 1777889742 | 16.11° C | 41% | 1018 hPa | 0 mm | - | - | - |
| 1777888842 | 15.56° C | 40% | 1018 hPa | 0 mm | - | - | - |
| 1777887941 | 15.56° C | 41% | 1018 hPa | 0 mm | - | - | - |
| 1777887041 | 15.56° C | 41% | 1018 hPa | 0 mm | - | - | - |
| 1777886141 | 15.56° C | 43% | 1018 hPa | 0 mm | - | - | - |
| 1777885241 | 15.56° C | 44% | 1018 hPa | 0 mm | - | - | - |
| 1777884340 | 15° C | 45% | 1018 hPa | 0 mm | - | - | - |
| 1777883440 | 14.44° C | 46% | 1018 hPa | 0 mm | - | - | - |
| 1777882540 | 14.44° C | 47% | 1018 hPa | 0 mm | - | - | - |
| 1777881639 | 14.44° C | 47% | 1018 hPa | 0 mm | - | - | - |
| 1777880739 | 13.89° C | 50% | 1018 hPa | 0 mm | - | - | - |
| 1777879839 | 13.33° C | 50% | 1018 hPa | 0 mm | - | - | - |
| 1777878938 | 13.33° C | 52% | 1018 hPa | 0 mm | - | - | - |
| 1777878038 | 12.78° C | 53% | 1018 hPa | 0 mm | - | - | - |
* Rain latest hour (hover to see other rain measurements)
** Current wind speed in m/s (hover to see current wind gust speed)